Wind_Speed
16 16 16 17 18 19 20 20 20 20 21 22 22 22 22 23 23 24 25 26 27 26 27 27 27 27 26 25 25 26 26 26 26 26 26 26 26 27 27 27 28 28 29
17 17 17 18 19 20 20 21 21 21 22 23 23 23 23 23 22 24 25 27 27 26 26 26 27 27 27 26 26 26 26 26 27 26 26 25 26 27 27 27 28 29 30
18 19 20 20 20 21 20 21 21 22 22 22 23 24 23 23 23 24 25 26 25 25 25 26 26 26 26 26 26 25 25 26 27 26 26 25 26 27 27 28 28 29 29
19 20 20 20 20 20 19 20 21 21 22 22 23 23 23 23 24 25 26 26 26 26 26 26 25 25 25 25 24 24 25 25 25 25 25 26 26 26 26 27 28 28 28
20 20 21 20 20 20 19 20 21 22 22 22 22 22 23 24 24 25 25 26 26 26 25 24 23 23 24 24 24 23 23 23 24 24 25 26 26 27 27 27 27 27 27
20 21 21 22 21 20 20 21 22 23 23 23 23 23 23 23 24 24 25 26 25 25 23 23 23 22 22 23 22 22 22 22 22 23 23 24 25 27 27 26 26 26 26
20 21 23 22 21 21 21 21 21 22 23 23 24 23 22 22 23 24 24 25 24 22 22 22 22 22 22 22 22 21 21 21 22 22 23 23 24 25 25 25 25 25 26
21 21 23 22 21 21 21 20 21 22 22 23 23 23 22 22 23 23 24 23 22 22 22 21 21 22 22 22 21 21 21 21 21 22 22 23 24 24 24 24 24 24 24
21 21 22 22 20 19 20 20 21 23 23 23 22 22 22 23 23 23 23 22 21 21 21 21 21 21 21 21 20 20 21 21 22 22 22 22 23 23 23 23 23 22 22
21 21 21 21 21 21 20 20 20 22 23 23 22 22 23 23 23 23 22 21 21 21 20 20 20 21 21 20 20 20 21 21 22 22 22 22 22 22 22 21 21 21 21
20 20 21 21 21 21 21 20 20 21 22 22 22 22 23 23 23 22 21 21 21 20 20 20 20 20 20 21 20 19 19 20 20 21 21 21 21 20 20 19 20 21 21
22 22 22 20 19 20 20 20 20 21 21 21 21 22 22 22 21 21 22 21 20 20 20 20 20 20 21 20 20 18 17 18 18 19 20 20 20 19 19 19 19 20 20
21 21 21 20 20 20 20 21 21 21 21 20 21 21 21 21 20 20 20 21 20 20 20 19 19 20 20 19 18 18 18 18 18 19 19 19 19 18 18 19 19 19 20
21 20 21 20 21 22 21 21 22 21 21 21 21 21 21 20 20 19 20 20 19 19 19 19 19 19 18 18 17 18 18 18 18 19 18 18 18 18 18 18 18 19 19
21 20 20 21 21 22 22 22 22 22 22 21 20 21 20 19 19 19 19 18 18 18 18 19 19 18 18 17 17 17 18 18 18 18 18 18 18 18 19 19 18 18 18
20 20 20 21 21 22 21 21 22 22 21 20 19 18 18 18 18 18 18 17 17 17 17 18 17 16 17 16 16 16 17 17 17 18 18 18 18 18 18 18 17 17 17
21 21 21 21 21 21 22 22 22 21 20 19 18 18 18 18 17 17 17 16 16 16 16 16 15 15 15 15 16 16 16 16 16 16 16 17 17 17 16 16 16 17 18
21 21 21 20 21 21 22 22 22 20 19 18 18 18 18 18 17 17 16 16 16 16 16 15 15 15 16 16 16 16 16 15 15 15 15 16 16 16 16 16 17 18 18
21 20 20 21 21 21 22 21 20 18 18 18 17 17 17 16 16 16 16 15 16 15 15 16 15 15 15 15 16 16 15 15 15 15 15 16 16 17 17 17 17 17 17
20 20 20 20 21 21 20 19 18 17 16 16 16 16 16 15 15 15 15 15 15 14 14 14 14 14 14 14 14 14 14 14 14 15 15 16 16 17 17 17 17 17 17
20 20 20 19 20 19 19 18 16 16 16 16 15 15 14 14 13 13 14 14 14 13 13 13 14 14 14 14 14 14 14 14 14 15 15 15 16 17 17 17 18 18 18
20 19 18 19 19 18 18 18 17 16 15 15 14 13 13 13 12 12 12 12 12 13 12 12 13 13 14 14 14 14 14 15 15 15 16 16 17 17 17 17 18 18 18
18 18 17 18 17 17 17 17 16 15 14 14 13 13 12 12 11 11 11 11 11 11 11 11 12 13 13 14 14 14 15 15 16 16 16 17 17 18 18 18 19 19 19
16 16 16 16 15 15 16 15 14 14 14 13 12 12 11 11 10 10 9 10 10 10 10 10 12 13 13 14 14 15 15 16 16 17 17 18 18 19 19 20 20 20 20
16 16 15 14 13 13 13 13 13 13 12 12 11 11 10 10 8 8 8 8 9 10 10 10 12 13 14 14 14 15 16 16 17 18 19 19 19 19 19 20 21 21 21
15 14 14 14 13 12 11 11 11 11 10 9 9 9 9 8 7 7 7 8 9 10 11 11 12 14 14 15 15 16 17 18 18 18 19 19 19 20 20 20 21 22 21
Wind_Direction
292 292 289 291 293 296 298 298 301 302 301 303 303 303 302 301 299 298 300 300 300 299 298 297 292 292 289 288 287 286 286 286 284 282 280 277 277 277 276 275 273 272 270
289 292 292 292 295 297 297 299 300 301 301 301 302 302 303 302 300 301 303 302 301 300 300 299 296 296 295 293 290 286 285 285 285 283 280 278 279 280 279 277 275 273 271
289 291 291 296 299 300 299 300 302 302 302 303 304 305 303 302 303 302 302 303 303 302 301 299 299 298 299 296 291 288 286 286 286 286 284 281 280 280 280 278 277 276 273
293 295 294 294 301 301 299 301 304 304 305 305 305 304 304 304 306 305 303 304 302 300 300 300 299 299 300 298 295 292 289 289 289 289 286 284 282 282 281 281 279 278 275
293 293 295 296 301 299 297 300 302 304 304 303 304 304 305 305 306 306 306 307 306 303 301 301 300 300 300 299 297 294 291 292 292 292 289 287 285 284 282 281 281 279 277
293 293 296 299 301 298 297 298 300 302 303 303 304 304 305 306 306 306 307 309 308 306 306 303 302 302 301 300 297 295 295 296 297 296 293 290 289 287 286 284 281 280 279
294 296 299 299 300 296 296 297 297 299 301 301 303 303 305 305 306 307 308 309 310 308 307 305 305 303 302 301 299 298 298 298 298 297 295 294 292 290 287 286 283 281 279
298 298 303 301 303 298 296 296 296 298 300 302 303 305 307 305 305 307 309 311 311 309 307 307 307 305 305 303 301 300 300 300 299 298 297 295 294 292 290 289 286 283 281
301 301 304 301 303 300 294 296 297 298 300 304 305 304 305 305 305 306 308 309 311 310 309 309 309 308 307 305 303 302 303 303 301 300 301 300 298 296 294 291 288 285 283
300 303 304 302 302 306 305 303 303 303 302 304 305 305 304 303 304 304 306 308 310 310 308 309 310 310 308 305 304 304 304 304 302 301 302 302 300 298 297 292 289 286 283
303 305 305 303 304 305 305 305 306 306 306 306 305 305 306 302 302 304 304 306 308 309 309 308 308 309 308 306 305 305 307 306 304 304 305 305 303 301 298 294 292 289 286
306 305 305 305 306 306 306 306 306 307 308 306 307 308 308 308 304 303 303 303 305 305 309 309 307 306 308 308 308 308 309 308 308 308 308 308 307 304 300 297 294 292 290
303 303 304 304 305 307 308 307 305 306 307 307 307 308 309 310 308 306 306 304 303 304 306 308 310 308 306 306 306 308 309 310 311 311 311 311 309 306 303 299 296 294 292
303 302 305 306 306 307 307 306 307 307 307 306 307 307 307 309 310 309 308 307 305 306 307 306 308 309 306 306 306 308 309 311 313 314 314 313 311 309 306 302 298 296 295
304 305 306 308 309 308 306 305 307 307 306 306 308 309 308 309 310 309 309 309 308 308 307 308 308 308 307 306 307 309 311 313 314 316 317 316 314 313 309 304 301 300 299
303 306 307 306 307 308 306 306 307 307 305 305 307 310 310 310 309 308 308 310 310 310 310 310 309 310 309 307 310 314 316 316 316 317 317 315 315 315 312 310 308 306 303
304 304 307 308 308 308 308 308 310 310 308 308 308 309 309 307 307 308 307 308 309 308 311 313 312 314 317 317 318 320 318 317 318 319 320 321 320 321 319 318 314 311 307
305 303 305 308 308 308 309 309 310 309 309 309 308 309 309 307 306 306 306 306 306 307 309 311 314 316 318 320 322 322 318 317 318 320 321 323 324 324 322 321 320 317 314
305 303 304 307 309 310 311 311 310 309 310 311 311 311 309 308 307 306 305 306 306 307 307 311 314 317 319 321 322 321 318 317 318 318 320 322 323 323 321 319 320 320 320
304 304 304 306 308 310 310 310 311 311 311 311 312 311 310 308 308 308 308 309 312 312 311 312 314 315 317 321 323 320 321 321 322 322 322 324 324 325 324 323 323 321 320
304 306 306 306 307 308 308 309 312 312 310 309 311 313 313 311 310 310 309 309 311 312 312 314 316 316 319 321 322 322 324 325 324 326 327 326 327 326 325 325 324 323 320
302 303 303 302 303 305 307 309 310 310 309 311 314 316 314 312 312 314 313 311 309 310 311 314 316 317 320 320 320 320 322 324 324 324 325 325 325 325 325 326 326 323 321
300 300 302 302 304 304 307 309 310 308 308 311 314 316 315 317 314 312 314 316 314 315 318 319 320 323 324 323 323 323 322 321 323 324 325 324 324 324 323 324 324 323 321
299 299 301 303 306 307 307 308 309 309 308 309 312 317 319 318 316 314 318 321 323 326 328 330 330 329 327 327 328 327 326 324 322 323 324 323 323 322 321 320 319 319 319
299 299 297 299 304 309 310 309 308 308 309 312 315 317 319 320 323 324 326 328 331 333 333 333 333 331 331 333 333 331 330 328 328 327 327 327 327 325 322 320 320 321 320
299 299 299 298 301 306 307 308 310 311 313 318 322 325 327 328 330 331 331 333 337 338 335 336 336 335 334 332 332 331 330 329 330 329 328 328 329 328 326 323 323 325 324
Height
5851 5850 5849 5848 5846 5845 5843 5842 5840 5838 5835 5832 5830 5827 5825 5823 5820 5817 5814 5811 5808 5805 5802 5799 5796 5793 5790 5788 5786 5784 5782 5780 5778 5776 5775 5773 5771 5770 5769 5767 5766 5765 5764
5847 5846 5844 5843 5842 5840 5839 5837 5835 5833 5830 5827 5825 5822 5820 5817 5814 5812 5808 5805 5802 5799 5795 5792 5789 5787 5784 5781 5779 5777 5774 5772 5770 5769 5767 5766 5765 5763 5761 5759 5758 5757 5756
5843 5842 5841 5839 5837 5836 5834 5832 5830 5827 5825 5822 5819 5817 5814 5812 5809 5806 5803 5799 5796 5792 5789 5786 5783 5780 5777 5775 5772 5769 5767 5765 5763 5761 5759 5758 5757 5755 5754 5752 5751 5749 5747
5839 5838 5836 5834 5832 5831 5829 5827 5825 5822 5820 5817 5814 5811 5808 5806 5804 5800 5797 5793 5790 5787 5783 5780 5776 5773 5771 5768 5765 5763 5761 5758 5756 5754 5752 5751 5749 5748 5747 5745 5743 5741 5739
5834 5832 5830 5828 5827 5825 5823 5821 5819 5817 5815 5812 5809 5806 5804 5801 5798 5794 5791 5787 5784 5780 5777 5773 5770 5767 5765 5762 5759 5757 5755 5752 5750 5748 5745 5743 5742 5740 5739 5737 5735 5733 5731
5829 5827 5825 5823 5820 5818 5818 5816 5814 5812 5809 5806 5804 5801 5798 5795 5792 5789 5785 5781 5778 5774 5771 5768 5765 5762 5759 5756 5753 5751 5749 5746 5744 5741 5739 5737 5735 5733 5731 5729 5727 5725 5724
5824 5822 5819 5817 5815 5813 5812 5810 5808 5806 5804 5801 5798 5794 5792 5789 5786 5783 5780 5776 5772 5768 5765 5762 5759 5756 5753 5750 5748 5746 5743 5740 5738 5735 5733 5730 5728 5726 5723 5721 5720 5718 5717
5819 5817 5815 5813 5810 5808 5807 5804 5802 5800 5797 5794 5791 5789 5786 5783 5781 5777 5774 5771 5767 5763 5760 5757 5754 5751 5748 5745 5743 5740 5738 5735 5732 5729 5727 5724 5721 5719 5716 5714 5713 5711 5710
5814 5812 5811 5808 5806 5803 5801 5798 5796 5794 5792 5789 5786 5784 5781 5778 5775 5772 5769 5765 5762 5758 5755 5752 5749 5746 5743 5740 5738 5735 5732 5729 5726 5723 5721 5718 5715 5712 5710 5707 5705 5705 5703
5810 5808 5806 5803 5800 5797 5796 5793 5791 5789 5786 5783 5781 5778 5775 5772 5769 5766 5763 5760 5756 5753 5750 5748 5745 5742 5739 5736 5733 5730 5726 5724 5721 5718 5715 5712 5708 5706 5703 5701 5699 5697 5697
5805 5803 5800 5797 5794 5792 5790 5788 5786 5783 5781 5779 5776 5773 5769 5766 5763 5760 5757 5754 5751 5748 5746 5743 5740 5737 5734 5731 5727 5724 5721 5719 5716 5713 5710 5706 5703 5700 5697 5695 5693 5691 5690
5800 5798 5795 5792 5790 5787 5785 5783 5781 5778 5776 5773 5770 5767 5764 5760 5757 5754 5751 5749 5746 5744 5741 5738 5735 5732 5729 5726 5723 5720 5717 5714 5711 5708 5705 5701 5698 5695 5692 5690 5688 5686 5684
5795 5793 5790 5788 5785 5783 5780 5778 5775 5773 5770 5768 5765 5761 5758 5754 5751 5748 5745 5743 5741 5738 5736 5733 5730 5727 5724 5722 5719 5715 5712 5709 5706 5703 5700 5697 5694 5690 5688 5685 5683 5680 5679
5790 5787 5785 5783 5780 5778 5775 5773 5770 5768 5765 5762 5759 5756 5752 5749 5746 5742 5740 5737 5735 5733 5731 5728 5726 5723 5720 5717 5714 5711 5708 5705 5702 5699 5696 5693 5689 5686 5683 5680 5678 5675 5673
5784 5782 5780 5777 5775 5773 5770 5768 5765 5762 5759 5756 5753 5750 5747 5744 5741 5738 5735 5732 5730 5728 5726 5723 5721 5718 5715 5712 5710 5707 5704 5701 5698 5695 5692 5688 5685 5681 5678 5675 5673 5670 5668
5779 5776 5774 5772 5770 5767 5765 5762 5759 5756 5753 5750 5748 5745 5742 5739 5736 5733 5731 5728 5726 5724 5721 5719 5716 5713 5710 5708 5705 5703 5700 5697 5694 5691 5687 5684 5680 5677 5674 5671 5668 5666 5663
5773 5771 5769 5766 5764 5761 5759 5756 5752 5749 5747 5744 5742 5740 5737 5734 5731 5729 5726 5724 5721 5719 5717 5714 5712 5709 5706 5704 5702 5699 5696 5693 5690 5687 5683 5680 5677 5673 5669 5667 5664 5661 5659
5767 5765 5763 5760 5758 5756 5753 5750 5747 5744 5741 5739 5737 5734 5732 5729 5726 5724 5721 5719 5717 5715 5713 5711 5709 5706 5703 5701 5698 5695 5692 5689 5686 5683 5679 5676 5673 5670 5666 5663 5660 5657 5654
5762 5759 5757 5754 5752 5750 5747 5745 5741 5739 5736 5734 5732 5729 5726 5724 5721 5719 5717 5715 5712 5710 5709 5707 5705 5702 5700 5698 5695 5691 5688 5685 5682 5679 5676 5673 5670 5666 5663 5660 5657 5654 5650
5757 5754 5752 5749 5747 5745 5742 5739 5736 5734 5732 5729 5727 5724 5722 5719 5717 5715 5713 5711 5708 5706 5705 5703 5701 5699 5696 5694 5691 5688 5685 5682 5679 5676 5673 5670 5666 5663 5659 5656 5653 5650 5647
5751 5749 5746 5744 5742 5739 5737 5734 5732 5730 5727 5725 5723 5720 5718 5715 5713 5711 5709 5707 5705 5703 5701 5699 5697 5695 5692 5690 5687 5684 5682 5679 5676 5673 5669 5666 5663 5659 5656 5653 5649 5646 5643
5746 5744 5741 5739 5736 5734 5732 5730 5728 5725 5723 5721 5719 5716 5714 5711 5709 5707 5705 5703 5701 5699 5697 5696 5694 5691 5689 5686 5684 5681 5678 5676 5673 5669 5666 5663 5660 5656 5653 5649 5646 5642 5639
5740 5738 5736 5734 5731 5729 5727 5725 5723 5721 5719 5717 5715 5712 5710 5708 5705 5704 5702 5700 5698 5696 5694 5693 5691 5688 5686 5683 5680 5678 5675 5672 5669 5666 5662 5659 5656 5652 5648 5645 5642 5638 5635
5735 5733 5731 5729 5727 5725 5723 5721 5719 5717 5715 5713 5711 5709 5707 5705 5703 5701 5699 5698 5696 5694 5692 5690 5688 5686 5683 5680 5677 5674 5671 5668 5665 5662 5658 5655 5651 5647 5644 5640 5637 5634 5630
5731 5729 5727 5725 5723 5721 5719 5717 5715 5713 5712 5710 5708 5706 5704 5702 5700 5699 5697 5696 5694 5692 5690 5688 5686 5684 5681 5678 5675 5671 5668 5665 5662 5658 5654 5651 5647 5643 5639 5636 5632 5628 5624
5726 5724 5722 5721 5719 5717 5715 5714 5712 5710 5709 5707 5706 5704 5703 5700 5699 5698 5696 5694 5692 5690 5688 5686 5683 5681 5678 5674 5672 5668 5665 5661 5658 5654 5650 5646 5643 5639 5635 5631 5627 5623 5620